Regional Weather Roundup
Issued by NWS Sioux Falls, SD

Home | Current Version | Previous Version | Graphics & Text | Print | Product List | Glossary On
Versions: 1 2 3 4 5 6 7 8 9 10 11 12 13 14 15 16 17 18 19 20 21 22 23 24 25 26 27 28 29 30 31 32 33 34 35 36 37 38 39 40 41 42 43 44 45 46 47 48 49 50
000
ASUS43 KFSD 280510
RWRFSD

WEATHER ROUNDUP FOR SE SOUTH DAKOTA/SW MINNESOTA/NW IOWA
NATIONAL WEATHER SERVICE SIOUX FALLS SD
1200 AM CDT SUN AUG 28 2016

NOTE: "FAIR" INDICATES FEW OR NO CLOUDS BELOW 12,000 FEET WITH NO
SIGNIFICANT WEATHER AND OR OBSTRUCTIONS TO VISIBILITY.


SDZ038>040-050-052>070-280600-
SOUTHEAST SOUTH DAKOTA

CITY           SKY/WX    TMP DP  RH WIND       PRES   REMARKS
BROOKINGS      CLEAR     64  61  90 SE9       30.04R
CHAMBERLAIN    CLEAR     70  66  87 SE7       29.95S
HURON          CLEAR     70  64  81 SE14G21   29.96F
MADISON        FAIR      64  64 100 SE7       30.05R
MITCHELL       CLEAR     70  65  84 SE13      29.99R
SIOUX FALLS    PTCLDY    69  65  86 SE8       30.04S
WINNER         FAIR      76  63  64 S17G25    29.96R
YANKTON        CLEAR     66  63  88 SE7       30.02R
$$

MNZ071-072-080-081-089-090-097-098-280600-
SOUTHWEST MINNESOTA

CITY           SKY/WX    TMP DP  RH WIND       PRES   REMARKS
FAIRMONT       PTCLDY    59  58  96 CALM      30.09
JACKSON          N/A     61  59  94 E5        30.10R
LUVERNE        CLEAR     57  55  94 CALM      30.07R FOG
MARSHALL       CLEAR     62  60  93 SE7       30.06R
MONTEVIDEO     CLEAR     59  59 100 S6        30.06S
REDWOOD FALLS  CLEAR     61  59  93 SE5       30.05S
TRACY          PTCLDY    65  63  93 S6        30.06F
WINDOM         CLEAR     63  59  88 CALM      30.08F
WORTHINGTON    CLEAR     64  62  93 S5        30.09R
$$

IAZ001>003-012>014-020>022-031-032-NEZ013-014-SDZ071-280600-
NORTHWEST IOWA

CITY           SKY/WX    TMP DP  RH WIND       PRES   REMARKS
CHEROKEE       CLEAR     63  63 100 CALM      30.08R
DENISON        CLEAR     66  64  94 SE5       30.06R FOG
ESTHERVILLE    PTCLDY    58  58 100 E3        30.09R FOG
LE MARS        CLEAR     66  63  88 CALM      30.07R
ORANGE CITY    CLEAR     64  63  94 E5        30.08R
SHELDON        PTCLDY    61  61 100 E7        30.06S FOG
SIOUX CITY     CLOUDY    66  63  90 SE7       30.05R
SPENCER        CLEAR     60  58  92 E3        30.09R
STORM LAKE     CLEAR     66  64  94 S8        30.09R
$$

ABBREVIATIONS USED IN REMARKS
   TC - TEMPERATURE IN CELSIUS
  WCI - WIND CHILL INDEX
   HX - HEAT INDEX
  VSB - VISIBILITY





USA.gov is the U.S. government's official web portal to all federal, state and local government web resources and services.